Weather in Kurganinsk

Russia / Krasnodar Krai     44°53′15″N   40°35′28″E
temp.,
°C
wind,
m/s
gust,
m/s
humid.,
%
clouds,
%
prec.,
mm/h
press.,
hPa
HPBL,
m
15 june, tue
tue1500:00+19ene5128121 0.0 1008239
03:00+17ene498440 0.0 1007161
06:00+19e1684100 0.1 1007231
09:00+23ese1276100 2.6 1008654
12:00+25wnw336998 0.1 10091150
15:00+26nw55645 0.6 10091250
18:00+25nw46730 0.3 1009485
21:00+20wnw22860 0.4 101012
16 june, wed
wed1600:00+18sw22900 0.1 101011
03:00+17ssw11910 0.1 101011
06:00+18nw22925 0.0 1010103
09:00+21n238688 2.3 1010605
12:00+25nne347695 0.3 1009720
15:00+26se367364 1.3 1007809
18:00+27e49744 0.4 1006451
21:00+22ene410832 0.4 1005176
17 june, thu
thu1700:00+21e71682100 0.6 1003403
03:00+18sse119462 4.5 100611
06:00+19nw5109681 2.3 1010391
09:00+20nw588798 2.6 1012574
12:00+23wnw687644 0.3 10141005
15:00+24wnw566383 0.5 10151292
18:00+18nw379695 7.0 1017225
21:00+18s1294100 7.1 101819
18 june, fri
fri1800:00+18sse11926 0.0 101811
03:00+16s12930 0.0 101811
06:00+18e01890 0.0 101954
09:00+22ene227815 0.0 1019622
12:00+25ne346771 0.1 10181256
15:00+26e677164 1.1 10171265
18:00+24ene59800 1.0 1017679
21:00+20ene411910 1.0 1018230
19 june, sat
sat1900:00+18ene412930 0.0 1017262
03:00+19ene511850 0.0 1016240
06:00+18ene513750 0.0 1017333
09:00+24e812726 0.0 1016832
12:00+28e9136410 0.0 10151565
15:00+29e1015600 0.1 10141606
18:00+26e916590 0.0 10131000
21:00+24e918520 0.0 1014910